SCP
0 0 0 0 0 0 0 0 0 0 0 0 0 0 0 0 0 0 0 0 0 0
0 0 0 0 0 0 0 0 0 0 0 0 0 0 0 0 0 0 0 0 0 0
0 0 0 0 0 0 0 0 0 0 0 0 0 0 0 0 0 0 0 0 0 0
0 0 0 0 0 0 0 0 0 0 0 0 0 0 0 0 0 0 0 0 0 0
0 0 0 0 0 0 0 0 0 0 0 0 0 0 0 0 0 0 0 0 0 0
0 0 0 0 0 0 0 0 0 0 0 0 0 0 0 0 0 0 0 0 0 0
0 0 0 0 0 0 0 0 0 0 0 0 0 0 0 0 0 0 0 0 0 0
0 0 0 0 0 0 0 0 0 0 0 0 0 0 0 0 0 0 0 0 0 0
0 0 0 0 0 0 0 0 0 0 0 0 0 0 0 0 0 0 0 0 0 0
0 0 0 0 0 0 0 0 0 0 0 0 0 0 0 0 0 0 0 0 0 0
0 0 0 0 0 0 0 0 0 0 0 0 0 0 0 0 0 0 0 0 0 0
0 0 0 0 0 0 0 0 0 0 0 0 0 0 0 0 0 0 0 0 0 0
0 0 0 0 0 0 0 0 0 0 0 0 0 0 0 0 0 0 0 0 0 0
0 0 0 0 0 0 0 0 0 0 0 0 0 0 0 0 0 0 0 0 0 0
Wind_Speed_500mb
51 46 35 29 32 25 20 18 13 9 3 1 4 5 6 7 7 10 12 14 16 19
51 41 37 38 33 26 23 16 11 5 2 3 5 5 7 9 9 12 15 16 20 22
48 37 34 34 30 28 22 14 9 5 4 5 6 6 8 11 12 14 18 22 23 25
46 42 37 35 32 27 18 13 8 5 7 7 8 9 11 14 17 19 21 25 28 30
37 36 44 39 33 22 16 12 8 7 9 9 10 12 15 18 20 23 27 30 32 33
46 42 42 37 28 20 16 11 11 11 10 11 13 15 17 20 24 26 30 33 36 36
48 43 38 31 23 18 15 15 13 12 13 15 16 19 20 23 27 30 33 35 37 38
43 38 32 25 21 19 18 17 16 15 16 17 19 22 22 25 29 31 33 37 38 40
39 33 28 24 23 21 19 18 17 18 20 22 23 25 25 27 29 33 37 38 39 41
36 30 24 25 22 20 19 19 21 23 25 27 27 28 28 30 35 37 41 42 42 44
35 27 27 25 20 20 20 24 27 28 30 29 29 32 32 36 41 42 44 46 46 46
28 27 26 21 19 21 26 28 31 32 33 33 31 34 37 42 43 46 49 49 48 46
27 29 26 20 21 25 29 32 35 36 35 35 35 40 42 46 47 51 51 50 49 45
34 29 21 21 26 29 33 35 36 37 35 39 41 44 46 49 52 51 52 52 47 42
Wind_Direction_500mb
165 166 165 188 195 186 188 185 177 165 161 318 326 337 332 327 341 329 328 328 330 323
157 163 177 187 195 186 189 186 169 170 238 281 293 311 313 306 328 324 318 319 321 319
155 157 183 197 192 192 192 176 184 210 259 286 288 297 299 311 315 312 314 317 317 318
153 170 185 194 197 194 181 190 205 235 264 273 286 303 310 310 311 311 311 317 316 311
172 170 192 192 194 183 196 208 227 255 263 278 297 308 305 306 309 314 315 309 305 305
169 180 193 190 189 195 206 223 240 252 272 289 298 300 299 305 307 306 303 302 299 302
185 185 189 191 193 206 222 236 248 263 273 282 294 294 296 301 305 303 299 297 298 304
186 185 190 196 205 220 230 241 251 263 274 284 285 289 297 300 297 294 297 301 302 305
188 190 196 205 218 226 237 249 260 269 271 278 281 285 290 293 294 301 305 302 302 303
192 195 204 216 225 239 251 264 267 266 269 274 280 285 292 300 306 303 302 301 303 303
196 205 214 224 238 254 266 265 265 263 265 275 279 283 295 300 299 302 301 301 299 301
197 212 225 239 253 263 264 267 268 262 266 272 279 292 297 295 297 301 300 298 297 301
211 221 232 247 261 269 271 269 266 265 269 277 290 293 294 294 296 294 296 297 297 300
216 225 240 261 271 271 270 269 270 271 278 286 291 291 292 292 292 294 297 297 298 296
Wind_Speed_850mb
51 46 35 29 32 25 20 18 13 9 3 1 4 5 6 7 7 10 12 14 16 19
51 41 37 38 33 26 23 16 11 5 2 3 5 5 7 9 9 12 15 16 20 22
48 37 34 34 30 28 22 14 9 5 4 5 6 6 8 11 12 14 18 22 23 25
46 42 37 35 32 27 18 13 8 5 7 7 8 9 11 14 17 19 21 25 28 30
37 36 44 39 33 22 16 12 8 7 9 9 10 12 15 18 20 23 27 30 32 33
46 42 42 37 28 20 16 11 11 11 10 11 13 15 17 20 24 26 30 33 36 36
48 43 38 31 23 18 15 15 13 12 13 15 16 19 20 23 27 30 33 35 37 38
43 38 32 25 21 19 18 17 16 15 16 17 19 22 22 25 29 31 33 37 38 40
39 33 28 24 23 21 19 18 17 18 20 22 23 25 25 27 29 33 37 38 39 41
36 30 24 25 22 20 19 19 21 23 25 27 27 28 28 30 35 37 41 42 42 44
35 27 27 25 20 20 20 24 27 28 30 29 29 32 32 36 41 42 44 46 46 46
28 27 26 21 19 21 26 28 31 32 33 33 31 34 37 42 43 46 49 49 48 46
27 29 26 20 21 25 29 32 35 36 35 35 35 40 42 46 47 51 51 50 49 45
34 29 21 21 26 29 33 35 36 37 35 39 41 44 46 49 52 51 52 52 47 42
Wind_Direction_850mb
165 166 165 188 195 186 188 185 177 165 161 318 326 337 332 327 341 329 328 328 330 323
157 163 177 187 195 186 189 186 169 170 238 281 293 311 313 306 328 324 318 319 321 319
155 157 183 197 192 192 192 176 184 210 259 286 288 297 299 311 315 312 314 317 317 318
153 170 185 194 197 194 181 190 205 235 264 273 286 303 310 310 311 311 311 317 316 311
172 170 192 192 194 183 196 208 227 255 263 278 297 308 305 306 309 314 315 309 305 305
169 180 193 190 189 195 206 223 240 252 272 289 298 300 299 305 307 306 303 302 299 302
185 185 189 191 193 206 222 236 248 263 273 282 294 294 296 301 305 303 299 297 298 304
186 185 190 196 205 220 230 241 251 263 274 284 285 289 297 300 297 294 297 301 302 305
188 190 196 205 218 226 237 249 260 269 271 278 281 285 290 293 294 301 305 302 302 303
192 195 204 216 225 239 251 264 267 266 269 274 280 285 292 300 306 303 302 301 303 303
196 205 214 224 238 254 266 265 265 263 265 275 279 283 295 300 299 302 301 301 299 301
197 212 225 239 253 263 264 267 268 262 266 272 279 292 297 295 297 301 300 298 297 301
211 221 232 247 261 269 271 269 266 265 269 277 290 293 294 294 296 294 296 297 297 300
216 225 240 261 271 271 270 269 270 271 278 286 291 291 292 292 292 294 297 297 298 296